Weather Roundup
Issued by NWS Corpus Christi, TX

Home | Current Version | Previous Version | Text Only | Print | Product List | Glossary Off
Versions: 1 2 3 4 5 6 7 8 9 10 11 12 13 14 15 16 17 18 19 20 21 22 23 24 25 26 27 28 29 30 31 32 33 34 35 36 37 38 39 40 41 42 43 44 45 46 47 48 49 50

000
ASUS44 KCRP 291210
HRRCRP

SOUTH TEXAS REGIONAL WEATHER ROUNDUP
NATIONAL WEATHER SERVICE CORPUS CHRISTI TX
600 AM CST THU JAN 29 2015


TXZ229>244-291300-
...CORPUS CHRISTI AREA OBSERVATIONS...

CITY           SKY/WX    TMP DP  RH WIND       PRES   REMARKS
CORPUS CHRISTI PTCLDY    53  53 100 SE7       30.13S
NAS CORPUS CHR PTCLDY    58  58 100 S7        30.14R
ROCKPORT       FOG       57  55  93 SE5       30.14S VSB 1/4
KINGSVILLE NAS FOG       51  51 100 E5        30.13S VSB 1/2
ALICE          FOG       53  52  96 S3        30.13R VSB 1/4
FALFURRIAS     CLOUDY    56  55  96 CALM      30.13R VSB 1/4
$$

...VICTORIA AREA OBSERVATIONS...

CITY           SKY/WX    TMP DP  RH WIND       PRES   REMARKS
VICTORIA       FOG       52  51  97 CALM      30.16S VSB 1/2
BEEVILLE       FOG       52  52 100 CALM      30.14R VSB 1/4
PLEASANTON     FOG       55  55  98 CALM      30.15R VSB 1/4
SAN ANTONIO    FOG       58  57  97 SW5       30.15S VSB 1/4
$$

...LAREDO AREA OBSERVATIONS...

CITY           SKY/WX    TMP DP  RH WIND       PRES   REMARKS
LAREDO         CLEAR     55  55 100 SE7       30.13
COTULLA        CLEAR     55  54  96 E6        30.12R FOG
DEL RIO        CLEAR     53  44  71 E3        30.11R
MCALLEN        FOG       58  57  97 SE7       30.12R VSB 1/2
HEBBRONVILLE   HVY RAIN  60  59  97 SE12      30.13R
$$

...OTHER TEXAS OBSERVATIONS...

CITY           SKY/WX    TMP DP  RH WIND       PRES   REMARKS
BROWNSVILLE    CLEAR     59  58  96 SE6       30.13R
HOUSTON        CLOUDY    58  57  97 CALM      30.17R FOG
COL. STATION   CLOUDY    59  57  93 SW10      30.16R
AUSTIN         FOG       53  53 100 S6        30.15S VSB 1/2
WACO           CLEAR     47  44  90 S5        30.14R
FORT WORTH     PTCLDY    57  40  52 NW10      30.10R
WICHITA FALLS  CLEAR     44  36  73 N12       30.17R
LUBBOCK        PTCLDY    44  33  65 NE16      30.25R
EL PASO        CLOUDY    47  37  68 N10       30.19R
$$

...MARINE OBSERVATIONS...

STATION/POSITION TIME  SKY/WX   TEMP    WIND        PRES    VSBY  WAVE   SWELL
                                AIR SEA DIR/SP/G                  HT/PER HT/PER
                 (UTC)          (F)     (DEG/KT/KT) (MB)    (MI)  (FT/S) (FT/S)
PORT ARANSAS     1200            62 60  140/  8/  8 1021.2R
BUOY 90 E PORT A 1200            68 68  170/ 10/ 12 1021.7R         2/ 4
BUOY 45 SE BAFFI 1200            68 70  160/ 10/ 12 1020.4F         1/ 4
BUOY 200 E PT IS 1200            70 72  130/  8/ 10 1022.0F         1/ 3
BUOY 15 E GALVES 1200            58 57  160/  4/  4 1021.5R         1/ 4   2/ 4
$$



USA.gov is the U.S. government's official web portal to all federal, state and local government web resources and services.